Tracking 29892 objects as of 21-Nov-2024
HD Live streaming from Space Station
objects crossing your sky now

BREEZE-M R/B

Track BREEZE-M R/B now!


NORAD ID: 36500
Int'l Code: 2010-010B
Perigee: 2,537.2 km
Apogee: 34,012.6 km
Inclination: 26.9 °
Period: 641.8 minutes
Semi major axis: 24645 km
RCS: 6.4189 m2 (large)
Launch date: March 20, 2010
Source: Commonwealth of Independent States (former USSR) (CIS)
Launch site: TYURATAM MISSILE AND SPACE COMPLEX (TTMTR)

Note: This is a ROCKET BODY
Your satellite tracking list
Your tracking list is empty




NASA's NSSDC Master Catalog

Two Line Element Set (TLE):
1 36500U 10010B   24324.04307610 -.00000168  00000-0  00000-0 0  9998
2 36500  26.9259 318.5955 6385511 246.6193  36.5058  2.24380731120252
Source of the keplerian elements: AFSPC